Estherville, IA

7:54 AM CDT on June 23, 2017 (GMT -0500)
Estherville Municipal

Weather History for KEST - November, 2014

Change the Weather History Date:

Saturday, November 1, 2014

  Actual Average Record
Temperature  
Mean Temperature 31 °F 41 °F  
Max Temperature 46 °F 51 °F 77 °F (1968)
Min Temperature 15 °F 30 °F 13 °F (1993)
Degree Days  
Heating Degree Days 34 24  
Month to date heating degree days 34 24  
Since 1 July heating degree days 753 773  
Cooling Degree Days 0 0  
Month to date cooling degree days 0 0  
Year to date cooling degree days 435 593  
Moisture  
Dew Point 18 °F    
Average Humidity 59    
Maximum Humidity 84    
Minimum Humidity 33    
Precipitation  
Precipitation 0.00 in 0.06 in 0.52 in (2004)
Month to date precipitation 0.00 0.06  
Sea Level Pressure  
Sea Level Pressure 30.35 in    
Wind  
Wind Speed 17 mph (SSE)    
Max Wind Speed 29 mph    
Max Gust Speed 36 mph    
Visibility 10 miles    
Events      
T = Trace of Precipitation, MM = Missing Value Source: NWS Daily Summary

Daily Weather History Graph

Daily Weather History Graph

Search for Another Location

Airport or City:

Trip Planner

Search our weather history database for the weather conditions in past years. The results will help you decide how hot, cold, wet, or windy it might be!

Date:

Astronomy

Nov. 01, 2014 Rise Set
Actual Time 7:54 AM CDT 6:10 PM CDT
Civil Twilight 7:24 AM CDT 6:39 PM CDT
Nautical Twilight 6:50 AM CDT 7:13 PM CDT
Astronomical Twilight 6:17 AM CDT 7:46 PM CDT
Moon 3:14 PM CDT (11/1) 1:40 AM CDT (11/1)
Length of Visible Light 11h 15m
Length of Day
10h 15m
Waxing Gibbous, 68% of the Moon is Illuminated
Nov 1
Waxing Gibbous
Nov 6
Full
Nov 14
Last Quarter
Nov 22
New
Nov 29
First Quarter

Hourly Weather History & Observations

Time (CDT) Temp. Windchill Dew Point Humidity Pressure Visibility Wind Dir Wind Speed Gust Speed Precip Events Conditions
12:52 AM 18.0 °F 9.8 °F 10.9 °F 74% 30.51 in 10.0 mi SE 5.8 mph - N/A   Clear
1:52 AM 18.0 °F 8.7 °F 12.0 °F 78% 30.51 in 10.0 mi SSE 6.9 mph - N/A   Clear
2:52 AM 17.1 °F 8.7 °F 12.0 °F 81% 30.50 in 10.0 mi South 5.8 mph - N/A   Clear
3:52 AM 16.0 °F 5.3 °F 10.9 °F 81% 30.48 in 10.0 mi South 8.1 mph - N/A   Clear
4:52 AM 19.0 °F 8.2 °F 14.0 °F 81% 30.48 in 10.0 mi South 9.2 mph - N/A   Clear
5:52 AM 19.9 °F 10.1 °F 15.1 °F 81% 30.46 in 10.0 mi South 8.1 mph - N/A   Clear
6:52 AM 21.0 °F 10.6 °F 16.0 °F 81% 30.46 in 10.0 mi South 9.2 mph - N/A   Clear
7:52 AM 21.0 °F 11.4 °F 16.0 °F 81% 30.45 in 10.0 mi South 8.1 mph - N/A   Clear
8:52 AM 25.0 °F 13.1 °F 19.0 °F 78% 30.44 in 10.0 mi South 13.8 mph - N/A   Clear
9:52 AM 27.0 °F 15.2 °F 19.9 °F 75% 30.44 in 10.0 mi South 15.0 mph - N/A   Clear
10:52 AM 33.1 °F 21.5 °F 21.0 °F 61% 30.42 in 10.0 mi South 19.6 mph - N/A   Clear
11:52 AM 37.9 °F 27.3 °F 21.0 °F 51% 30.40 in 10.0 mi South 21.9 mph 29.9 mph N/A   Clear
12:52 PM 41.0 °F 31.4 °F 21.0 °F 45% 30.36 in 10.0 mi South 21.9 mph 28.8 mph N/A   Clear
1:52 PM 43.0 °F 33.5 °F 19.9 °F 40% 30.32 in 10.0 mi SSE 24.2 mph 31.1 mph N/A   Clear
2:52 PM 45.0 °F 36.0 °F 19.0 °F 36% 30.28 in 10.0 mi SSE 25.3 mph 32.2 mph N/A   Clear
3:52 PM 44.1 °F 35.2 °F 18.0 °F 35% 30.26 in 10.0 mi SSE 23.0 mph 33.4 mph N/A   Clear
4:52 PM 45.0 °F 36.6 °F 18.0 °F 34% 30.25 in 10.0 mi SSE 21.9 mph 34.5 mph N/A   Clear
5:52 PM 42.1 °F 33.6 °F 19.0 °F 40% 30.22 in 10.0 mi SSE 18.4 mph 29.9 mph N/A   Clear
6:52 PM 39.0 °F 29.9 °F 19.9 °F 46% 30.22 in 10.0 mi SSE 17.3 mph - N/A   Clear
7:52 PM 37.0 °F 26.7 °F 21.0 °F 52% 30.21 in 10.0 mi SSE 19.6 mph - N/A   Clear
8:52 PM 37.0 °F 26.4 °F 21.9 °F 54% 30.19 in 10.0 mi SSE 20.7 mph - N/A   Clear
9:52 PM 36.0 °F 24.7 °F 21.9 °F 57% 30.18 in 10.0 mi SSE 21.9 mph 27.6 mph N/A   Clear
10:52 PM 37.0 °F 26.4 °F 21.0 °F 52% 30.17 in 10.0 mi South 20.7 mph - N/A   Clear
11:52 PM 37.0 °F 25.1 °F 21.9 °F 54% 30.15 in 10.0 mi South 26.5 mph 31.1 mph N/A   Clear